Location: ??????????
(54.7560°N, 39.1389°E)
Time: 13:36:01
(UTC+00:00)

Cosmos 1975 - Pass Details

Date: 19 May 2025
Orbit: 487 x 505 km, 82.5° (Epoch: 20 June)

Event Time Altitude Azimuth Distance (km) Brightness Sun altitude
Rises 19:33:47 0° 353° (N) 2,580 7.8 -11.9°
Reaches altitude 10° 19:36:00 10° 1° (N) 1,692 6.4 -12.1°
Maximum altitude 19:39:29 39° 71° (ENE) 756 3.5 -12.3°
Enters shadow 19:41:47 18° 133° (SE) 1,249 4.1 -12.4°
